Wind_Speed
2 2 2 1 0 0 1 1 2 3 2 3 4 4 4 4 4 3 3 3 3 3 3 3 2 2 3 3 3 2 2 1 1 1 0 2 3 3 3 4 4 4 5
3 3 3 2 2 2 2 2 2 2 2 3 4 4 5 4 4 5 4 4 5 4 4 3 3 2 3 3 3 3 3 2 2 2 1 2 3 4 4 4 5 5 5
3 3 3 3 3 3 3 3 3 3 3 4 4 5 5 5 5 5 6 5 5 5 4 4 4 4 4 4 4 4 4 4 4 3 3 3 4 5 5 6 6 6 6
4 4 4 4 4 4 4 4 4 4 4 4 5 5 6 6 6 6 6 6 6 6 5 5 5 5 5 5 5 6 6 5 5 5 5 5 5 6 6 7 7 7 7
5 5 5 5 5 6 6 6 5 5 5 4 5 6 7 7 7 7 7 7 7 7 7 7 7 6 6 7 7 8 8 7 7 7 7 6 7 7 7 8 8 9 8
5 5 6 6 6 6 7 6 6 6 6 6 6 7 7 8 8 8 7 8 7 8 8 8 7 8 7 8 8 9 9 9 9 9 9 8 8 8 9 9 9 9 9
4 5 5 6 6 7 7 8 8 8 7 7 8 8 8 9 8 8 8 8 8 9 9 9 8 8 9 10 10 10 10 10 10 10 10 10 9 9 9 10 10 10 10
4 5 6 6 7 7 7 8 9 8 9 9 8 9 9 9 9 9 9 9 9 9 9 9 9 9 9 11 10 10 11 11 11 12 12 11 10 10 10 10 10 11 10
4 5 6 6 7 8 8 8 9 8 9 9 9 9 9 9 10 10 10 9 9 9 8 8 9 10 10 10 11 11 11 11 11 11 12 12 11 11 11 11 10 10 10
5 5 6 6 7 8 8 9 9 9 9 9 10 9 9 10 10 10 10 10 10 9 9 9 10 10 10 10 10 10 11 11 10 10 10 10 10 10 11 11 11 11 10
4 5 6 6 7 7 8 8 9 9 10 10 9 9 9 9 10 10 10 10 10 10 10 9 10 9 9 10 10 10 10 10 10 9 9 9 10 10 10 10 11 11 10
5 5 6 7 7 8 8 9 9 9 10 10 9 10 10 9 9 9 9 10 10 10 10 9 9 9 9 9 9 9 9 9 9 9 9 9 10 10 10 10 10 9 9
5 6 6 7 8 8 8 8 9 9 9 9 9 9 9 9 9 9 9 9 10 10 10 10 10 9 9 9 9 9 9 9 9 9 9 10 10 10 10 10 9 8 9
6 6 7 7 7 8 8 8 8 8 8 8 8 8 8 8 8 8 9 9 9 9 9 9 9 9 9 9 9 8 8 9 9 9 9 9 9 9 9 9 9 9 10
6 7 7 7 7 7 6 6 7 7 7 7 7 8 8 8 8 8 8 9 9 9 8 8 8 8 8 9 9 9 9 9 9 9 9 10 10 10 10 10 10 10 10
7 7 6 6 6 6 6 6 6 7 7 7 7 7 8 8 8 8 8 9 9 9 8 8 8 8 9 9 9 9 10 9 10 10 10 10 10 11 10 10 10 10 11
6 7 7 7 6 6 6 6 7 7 7 7 7 7 8 8 8 9 9 9 9 9 9 9 10 10 10 10 10 10 10 11 11 11 10 10 11 11 10 10 10 11 10
7 6 7 7 6 6 7 7 7 7 7 7 7 8 8 9 9 9 9 10 10 10 10 10 10 10 10 10 10 11 11 11 11 11 11 11 11 11 11 11 11 10 10
7 6 6 7 7 7 7 7 8 7 7 8 8 8 9 9 10 10 10 10 10 10 10 11 11 11 11 11 11 11 12 12 11 11 12 12 11 11 11 11 11 11 11
7 7 6 7 7 7 8 8 8 8 8 8 8 8 9 9 10 11 11 11 11 11 11 11 11 11 11 11 12 12 12 12 12 12 13 13 12 12 12 12 11 11 11
8 8 8 7 7 7 7 8 8 8 9 9 9 9 9 10 11 11 11 11 11 12 12 12 12 12 12 12 12 12 12 12 13 13 13 14 13 13 12 12 12 12 12
10 9 9 9 9 9 8 8 9 9 9 9 9 10 11 11 11 12 12 12 12 13 13 13 13 13 13 12 12 13 13 13 13 13 13 13 14 13 13 13 13 13 13
10 10 10 10 10 10 10 10 10 10 10 11 11 11 11 12 12 12 12 12 13 13 13 13 14 13 13 13 13 13 14 14 13 13 13 13 13 13 13 13 13 13 13
11 11 11 11 11 11 11 11 11 11 11 12 12 12 13 13 13 13 13 13 13 13 13 13 14 14 14 14 14 14 14 14 14 13 13 13 13 13 14 14 13 13 14
12 12 12 12 12 12 12 12 12 12 12 13 13 14 14 14 14 14 14 14 14 14 14 14 14 14 15 15 15 15 14 14 14 13 13 14 14 14 14 14 15 14 14
13 13 13 13 13 13 13 13 13 13 14 14 15 15 15 15 15 15 15 15 15 15 15 15 15 16 15 15 15 15 15 14 14 14 14 14 14 14 14 15 15 15 15
Wind_Direction
207 206 209 212 196 305 312 321 317 311 284 258 256 252 248 252 255 256 261 267 280 270 278 283 277 253 246 237 229 223 207 236 283 324 256 198 186 193 203 207 211 216 226
221 228 230 242 261 273 280 292 301 296 268 252 260 251 253 253 253 256 265 274 276 267 274 283 282 272 262 250 249 249 241 233 247 267 255 234 226 220 222 231 231 233 240
236 243 248 251 259 269 272 276 284 284 285 271 260 253 255 254 258 264 267 269 267 261 269 274 277 276 279 272 261 259 259 254 250 256 254 246 246 246 248 251 248 248 252
245 251 258 260 263 270 272 268 269 274 279 274 265 257 260 262 261 266 269 270 269 263 270 272 272 277 281 281 269 264 265 266 259 262 262 260 258 257 258 259 258 257 260
254 257 262 266 266 267 270 270 264 263 267 267 265 261 266 264 267 270 267 271 271 272 273 270 274 278 276 277 271 266 264 264 265 266 265 264 261 261 262 263 262 260 261
260 260 262 265 266 266 267 268 269 269 267 262 264 266 270 269 272 270 267 266 268 275 275 273 274 276 274 276 273 269 268 267 268 268 267 266 264 264 266 267 261 262 263
263 264 266 269 268 266 267 268 268 269 266 265 265 268 270 269 267 269 270 267 269 275 276 275 273 276 277 276 276 273 269 269 268 267 266 266 265 265 268 269 267 266 264
267 271 272 270 270 269 267 268 269 271 272 271 270 271 270 267 264 266 271 271 274 274 272 271 270 274 276 276 275 274 271 270 268 265 263 265 266 266 265 268 270 272 270
274 277 279 276 275 273 269 273 270 270 271 272 273 273 272 268 267 268 273 274 273 271 271 272 276 275 276 274 276 276 276 274 270 265 262 264 267 268 267 268 270 273 271
281 281 282 284 280 280 278 275 273 269 270 271 271 273 275 271 268 270 274 274 271 267 270 274 278 278 277 276 276 277 278 278 278 269 265 265 268 271 271 271 272 271 272
286 284 284 287 285 282 280 276 273 272 272 271 269 271 273 270 268 272 274 276 276 276 272 276 278 278 277 278 278 279 280 279 277 274 271 264 267 271 269 270 267 267 268
292 291 288 288 287 283 281 278 273 271 272 270 268 268 270 271 273 274 276 278 279 280 278 284 284 284 283 279 280 283 282 283 277 276 273 274 273 271 271 271 271 265 265
289 291 295 295 291 286 283 279 273 269 269 270 271 272 275 276 278 277 281 282 283 285 286 290 291 291 292 288 288 286 285 281 282 281 277 274 276 273 275 276 277 276 274
289 291 294 291 288 288 286 280 274 269 267 269 273 275 278 277 277 276 279 280 282 286 290 291 293 294 293 291 294 291 289 285 282 281 281 277 277 275 276 280 280 282 280
291 293 295 296 292 294 291 284 272 268 269 270 271 274 276 276 277 276 279 283 286 289 292 293 293 294 294 290 290 291 288 286 280 280 279 277 272 271 275 277 276 276 277
290 293 295 297 298 294 289 279 275 270 269 270 271 274 275 273 272 274 279 285 286 286 288 288 287 288 287 284 286 286 282 281 278 278 277 276 271 269 271 270 270 270 271
290 296 298 298 302 296 287 280 274 268 271 273 273 273 276 278 280 280 283 284 283 281 283 285 284 285 285 286 286 284 283 282 279 277 276 275 270 268 270 269 269 270 271
288 291 292 293 295 293 289 287 281 274 276 279 279 278 279 279 281 284 288 289 286 282 284 284 284 283 282 284 287 286 286 285 282 278 276 275 271 270 271 271 271 271 270
290 290 289 290 289 288 288 288 284 278 279 282 282 284 285 283 282 282 286 287 286 285 284 283 284 283 281 282 285 287 287 286 283 280 277 276 273 272 272 271 270 270 269
288 295 293 293 296 293 287 288 284 283 282 281 279 282 286 285 282 282 285 284 284 285 285 284 285 286 284 283 283 286 286 284 281 280 279 276 274 271 270 270 268 267 266
285 288 290 291 293 293 293 291 289 287 284 282 280 281 287 287 284 282 283 282 282 283 282 283 284 287 287 284 286 288 286 281 280 278 278 276 274 271 268 267 265 265 266
282 285 287 289 289 288 288 289 290 287 283 280 280 284 286 289 288 284 282 281 281 281 281 282 283 286 287 287 287 288 286 283 279 276 276 275 273 270 266 264 263 264 264
277 278 280 284 286 285 283 283 284 284 281 279 281 282 285 288 288 286 284 284 282 282 283 284 285 288 288 287 286 285 285 284 282 278 275 273 272 271 267 264 262 262 263
273 273 276 278 281 283 283 282 283 285 284 282 281 282 284 287 289 287 285 286 286 282 284 285 285 287 288 287 285 283 283 284 283 280 276 274 273 271 268 265 262 263 263
273 274 275 275 276 279 281 283 283 284 284 283 283 283 285 287 289 288 287 287 287 285 284 285 285 286 288 288 286 283 282 282 283 281 275 272 271 271 268 265 263 263 263
274 274 274 274 274 276 279 281 281 282 283 283 282 283 284 286 287 286 286 286 286 285 284 284 283 285 287 287 286 282 280 281 281 280 276 271 269 270 270 267 265 264 264
Height
5878 5878 5878 5878 5878 5878 5878 5878 5877 5876 5875 5875 5875 5876 5877 5877 5877 5877 5877 5877 5876 5876 5875 5875 5875 5874 5874 5873 5872 5873 5873 5872 5872 5872 5871 5871 5871 5871 5871 5871 5872 5872 5872
5878 5877 5878 5877 5877 5878 5878 5877 5877 5877 5875 5875 5876 5876 5876 5876 5876 5876 5876 5876 5875 5875 5875 5875 5874 5874 5874 5874 5873 5873 5873 5873 5872 5872 5872 5871 5871 5871 5871 5871 5871 5871 5871
5877 5877 5877 5877 5877 5877 5877 5877 5877 5877 5876 5876 5876 5876 5876 5876 5876 5876 5875 5875 5875 5875 5874 5874 5874 5874 5874 5873 5873 5873 5873 5872 5872 5872 5872 5871 5871 5871 5871 5871 5870 5870 5870
5876 5876 5876 5876 5876 5876 5876 5876 5876 5876 5876 5876 5876 5875 5875 5875 5875 5875 5874 5874 5874 5874 5874 5873 5873 5873 5873 5872 5872 5872 5872 5872 5872 5872 5871 5871 5871 5870 5870 5870 5869 5869 5869
5875 5875 5875 5875 5875 5875 5876 5876 5875 5875 5875 5875 5875 5875 5875 5875 5874 5874 5874 5873 5873 5873 5872 5872 5872 5872 5872 5872 5871 5871 5871 5871 5871 5870 5870 5870 5870 5869 5869 5868 5868 5868 5868
5873 5874 5874 5874 5874 5874 5874 5875 5874 5874 5874 5874 5874 5874 5874 5874 5873 5872 5872 5872 5872 5871 5871 5871 5871 5871 5871 5870 5870 5870 5870 5870 5869 5869 5869 5869 5869 5868 5868 5867 5867 5867 5866
5872 5872 5873 5873 5873 5873 5873 5873 5873 5873 5873 5873 5873 5873 5872 5872 5872 5871 5871 5871 5870 5870 5870 5869 5869 5869 5869 5869 5869 5868 5868 5868 5868 5867 5867 5867 5867 5867 5866 5866 5865 5865 5864
5871 5871 5872 5872 5872 5872 5872 5872 5872 5872 5872 5872 5871 5871 5871 5871 5871 5870 5870 5869 5869 5868 5868 5868 5868 5868 5867 5867 5866 5866 5866 5866 5866 5865 5865 5865 5865 5864 5864 5863 5863 5863 5863
5870 5870 5870 5870 5870 5870 5870 5870 5870 5870 5870 5870 5870 5869 5869 5869 5869 5868 5868 5868 5867 5867 5866 5866 5866 5866 5865 5865 5865 5864 5864 5864 5863 5863 5863 5863 5862 5862 5862 5861 5861 5861 5860
5869 5869 5869 5869 5868 5868 5868 5868 5868 5868 5868 5868 5868 5867 5867 5867 5867 5867 5866 5866 5866 5865 5865 5864 5864 5864 5863 5863 5862 5862 5862 5862 5861 5861 5861 5860 5860 5860 5859 5859 5859 5859 5858
5867 5867 5867 5867 5867 5866 5866 5866 5866 5866 5866 5865 5865 5865 5865 5865 5865 5865 5865 5864 5864 5863 5863 5862 5862 5862 5861 5861 5860 5860 5859 5859 5859 5859 5859 5858 5858 5857 5856 5856 5856 5856 5856
5866 5866 5866 5865 5865 5864 5864 5863 5863 5863 5863 5863 5863 5863 5863 5863 5863 5863 5862 5862 5862 5861 5861 5860 5860 5860 5859 5858 5858 5858 5858 5857 5857 5857 5856 5856 5856 5855 5854 5854 5853 5853 5853
5865 5864 5864 5863 5862 5862 5861 5860 5860 5861 5861 5861 5861 5861 5861 5861 5861 5861 5861 5860 5860 5860 5859 5859 5858 5857 5857 5857 5856 5856 5856 5855 5855 5854 5854 5854 5854 5853 5852 5852 5851 5851 5851
5863 5862 5862 5861 5860 5859 5858 5858 5858 5858 5859 5859 5859 5859 5859 5859 5859 5859 5859 5859 5858 5858 5857 5857 5856 5856 5856 5855 5854 5854 5854 5853 5853 5852 5852 5851 5851 5851 5850 5850 5849 5849 5849
5861 5861 5860 5859 5858 5857 5856 5855 5856 5856 5857 5857 5857 5857 5857 5857 5857 5857 5857 5857 5856 5856 5856 5855 5855 5854 5854 5853 5852 5852 5851 5851 5850 5850 5849 5849 5849 5848 5848 5847 5847 5847 5847
5859 5859 5858 5857 5857 5856 5855 5854 5854 5855 5855 5856 5856 5855 5855 5855 5855 5855 5855 5855 5854 5854 5854 5853 5852 5852 5852 5851 5850 5850 5849 5848 5848 5847 5847 5846 5846 5846 5845 5845 5845 5845 5844
5857 5857 5857 5856 5855 5854 5854 5854 5853 5853 5853 5854 5854 5854 5854 5853 5853 5853 5853 5853 5852 5852 5851 5851 5850 5850 5849 5849 5848 5847 5846 5846 5845 5844 5844 5844 5843 5843 5843 5842 5842 5842 5842
5856 5856 5855 5854 5854 5853 5853 5852 5852 5852 5852 5852 5852 5852 5852 5851 5851 5851 5851 5850 5850 5849 5849 5848 5848 5847 5847 5846 5845 5845 5844 5843 5842 5842 5841 5841 5840 5840 5840 5840 5839 5839 5839
5854 5854 5853 5853 5852 5852 5851 5851 5850 5850 5850 5850 5850 5850 5849 5849 5849 5849 5848 5848 5847 5847 5846 5845 5845 5844 5844 5843 5843 5842 5841 5840 5840 5839 5838 5838 5837 5837 5837 5837 5836 5836 5836
5852 5852 5851 5851 5850 5850 5849 5849 5849 5848 5848 5848 5848 5847 5847 5847 5846 5846 5846 5845 5845 5844 5843 5843 5842 5841 5841 5840 5840 5839 5838 5837 5836 5836 5835 5835 5834 5834 5833 5833 5833 5833 5833
5850 5850 5849 5849 5848 5848 5847 5847 5847 5846 5846 5846 5846 5845 5845 5844 5844 5843 5843 5842 5842 5841 5840 5840 5839 5838 5837 5837 5836 5836 5835 5834 5833 5832 5831 5831 5831 5830 5830 5830 5830 5830 5830
5847 5847 5847 5847 5847 5846 5845 5845 5844 5844 5844 5844 5843 5843 5842 5842 5841 5840 5840 5839 5838 5838 5837 5836 5836 5835 5834 5833 5833 5832 5831 5831 5829 5828 5828 5827 5827 5826 5826 5826 5826 5827 5827
5845 5845 5845 5844 5844 5843 5843 5842 5842 5841 5841 5841 5841 5840 5840 5839 5838 5837 5836 5835 5835 5834 5833 5833 5832 5831 5830 5829 5829 5828 5827 5826 5826 5825 5824 5823 5823 5823 5823 5823 5823 5823 5823
5841 5841 5841 5841 5841 5840 5840 5840 5839 5839 5838 5838 5837 5837 5836 5835 5834 5833 5833 5832 5831 5830 5829 5829 5828 5827 5826 5825 5825 5824 5823 5822 5822 5821 5820 5820 5819 5819 5819 5819 5819 5819 5819
5838 5838 5838 5838 5838 5837 5837 5836 5836 5835 5835 5834 5834 5833 5832 5832 5831 5830 5829 5828 5827 5826 5826 5825 5824 5823 5822 5821 5820 5820 5819 5818 5817 5817 5816 5816 5815 5815 5815 5815 5815 5815 5815
5834 5834 5834 5834 5834 5834 5833 5833 5832 5832 5831 5831 5830 5829 5828 5827 5827 5826 5825 5824 5823 5822 5821 5820 5820 5819 5818 5817 5816 5815 5815 5814 5813 5813 5812 5812 5811 5811 5810 5810 5810 5810 5811